Showing default

ESSA 2 (OT-2), 2091

Orbit data source: Space-Track

ESSA 2 (OT-2), 2091 is a payload satellite owned by ESSA (US) in SSO that was launched on Mon, 28 Feb 1966 UTC via a THOR DELTA E launch vehicle from the Air Force Eastern Test Range (AFETR). Payload-class satellites include a variety of spacecraft equipped with specific instruments for various scientific and technological missions. These include communications satellites like Starlink; space stations such as the ISS; scientific satellites like the Hubble; Earth observation satellites from companies like Planet Labs, Umbra, and HawkEye 360; GPS; miniature CubeSats for education and research; and military/defense satellites.

Loading next visibility...
Identifier
2091, 1966-016A
Orbit
SSO
Country
Flag of USUS
Related business
Manufacturer
RCA/East Windsor
Mission
Non-operational spacecraft
Bus & Motor
TIROS I, Unknown motor
Mass
130 kg wet, 130 kg dry
Launch date (UTC)
1966-02-28 (60 years ago)
Launch vehicle
THOR DELTA E
Launch site
Air Force Eastern Test Range (AFETR)
Object type
Payload
Rocket body
Debris
Shape & HBR
Unknown
Radar Cross Section
Medium (>0.1 m² and <1 m²)

Expand to show TLE details & history
Last TLE update: 8 hours ago

TLE from 8 hours ago
0 ESSA 2 (OT-2)
1  2091U 66016A   26125.69893530 -.00000015  00000-0  14469-3 0  9994
2  2091 101.2357  35.9816 0038799 343.4787  70.6003 12.69430345788238
Epoch: 2026-05-05T16:46Z
TLE epoch observation values (Epoch: 2026-05-05T16:46:28.009Z)
Latitude
53.08253°
Longitude
-94.45934°
Altitude
1,382.841 km
Speed
7.177 km/s
True Right ascension
01h 22m 54s
True Declination
52° 55' 50"
Sunlit
Object was in daylight at epoch
Visualization orbit readout
Latitude
Unknown
Longitude
Unknown
Altitude
Unknown
Speed
Unknown
Apparent Right ascension
Unknown
Apparent Declination
Unknown
Sunlit
N/A
Visualization observer readout
Local Sidereal Time
08:17:55
Azimuth
Unknown
Elevation
Unknown
Doppler factor
Unknown
Orbital elements
Apogee altitude
1,411.86 km
Perigee altitude
1,351.645 km
Semi-major axis
7,759.89 km
Eccentricity
0.00388
Inclination
101.2357°
RAAN
35.9816°
Arg. of periapsis
343.4787°
True anomaly
71.02033°
Mean anomaly
70.6003°
Eccentric anomaly
70.81025°
Mean motion
3.17512 °/min
Orbital period
113.38 mins
BSTAR
0.00014469
Loading maneuver chart data...
Computing Atmospheric mass density...
Loading historical data...
Loading historical data...
Loading historical data...
Loading historical data...
Loading historical data...
Loading historical data...
Loading historical data...
Other satellites on launch #16 in the year 1966 (1966-02-28 UTC)

Documentation

Showing up to 5 results
|